Regional Weather Roundup
Issued by NWS Sterling, VA

Home | Current Version | Previous Version | Graphics & Text | Print | Product List | Glossary On
Versions: 1 2 3 4 5 6 7 8 9 10 11 12 13 14 15 16 17 18 19 20 21 22 23 24 25 26 27
000
ASUS41 KLWX 041510
RWRLWX

REGIONAL WEATHER ROUNDUP
NATIONAL WEATHER SERVICE BALTIMORE MD/WASHINGTON DC
1000 AM EST SUN DEC 04 2016

Note: "FAIR" indicates few or no clouds below 12,000 feet
with no significant weather and/or obstructions to visibility.
 TC=TEMPERATURE CELSIUS

 * =Non NWS site. Station does not report precipitation (e.g. rain,
    snow, etc.), thunder, or fog.

DCZ001-MDZ009-015-VAZ040>042-051-053>054-041600-
WASHINGTON METRO

CITY           SKY/WX    TMP DP  RH WIND       PRES   REMARKS
WASHINGTON NAT CLOUDY    42  29  59 NW8       30.31R
DULLES         CLOUDY    41  28  60 N5        30.30R
ANDREWS AFB    CLOUDY    42  28  58 N6        30.28R
FT BELVOIR     CLOUDY    42  28  56 N5        30.30R
QUANTICO       CLOUDY    43  29  57 N5        30.32R
COLLEGE PARK*  CLOUDY    41  28  60 N3        30.29R
LEESBURG*      CLOUDY    43  32  65 MISG      30.30R
MANASSAS*      SUNNY     37  34  87 CALM      30.31R
GAITHERSBURG*  CLOUDY    39  28  65 NW5       30.32R

$$

MDZ006>007-011-014-041600-
BALTIMORE METRO

CITY           SKY/WX    TMP DP  RH WIND       PRES   REMARKS
BWI AIRPORT    CLOUDY    43  30  60 CALM      30.29R
MD SCIENCE CTR   N/A     45  28  51 MISG      30.31R
MARTIN STATE   CLOUDY    45  34  65 NW6       30.30S
ANNAPOLIS      CLOUDY    44  32  62 NW6       30.29R
FORT MEADE*    CLOUDY    41  30  65 N5        30.31S

$$

MDZ012-015-019>023-041600-
MARYLAND EASTERN SHORE

CITY           SKY/WX    TMP DP  RH WIND       PRES   REMARKS
OCEAN CITY     CLOUDY    43  33  68 NW7       30.29R
SALISBURY      CLOUDY    42  33  70 NW8       30.28R
BAY BRIDGE AP* CLOUDY    43  32  65 NW8       30.29S
CAMBRIDGE*     CLOUDY    41  32  70 CALM      30.28S
EASTON*        MOSUNNY   45  34  65 NW6       30.32R

$$

MDZ017>025-041600-
SOUTHERN MARYLAND

CITY           SKY/WX    TMP DP  RH WIND       PRES   REMARKS
PATUXENT RIVER CLOUDY    42  29  59 NW6       30.29S
ST INIGOES     PTSUNNY   43  31  62 VRB3      30.29S
LEONARDTOWN*   PTSUNNY   41  30  65 CALM      30.31R

$$

MDZ003>005-041600-
NORTH CENTRAL MARYLAND

CITY           SKY/WX    TMP DP  RH WIND       PRES   REMARKS
FREDERICK*     MOSUNNY   39  32  75 CALM      30.32R
HAGERSTOWN APT CLOUDY    38  27  64 S5        30.28R
WESTMINSTER*   CLOUDY    37  28  70 CALM      30.27R

$$

MDZ501>502-041600-
WESTERN MARYLAND

CITY           SKY/WX    TMP DP  RH WIND       PRES   REMARKS
OAKLAND*       MOSUNNY   28  25  86 SE12      30.16S WCI  18
CUMBERLAND*    NOT AVBL

$$

VAZ025>031-041600-
SHENANDOAH VALLEY

CITY           SKY/WX    TMP DP  RH WIND       PRES   REMARKS
WINCHESTER*    CLOUDY    36  28  75 SW3       30.28S
FRONT ROYAL*   FAIR      36  30  80 S5        30.28S
LURAY*         FAIR      34  32  93 CALM      30.29R
NEW MARKET*    FAIR      34  27  77 CALM      30.28S
STAUNTON*      CLOUDY    32  29  88 CALM      30.30R
WAYNESBORO*    FAIR      32  28  84 CALM      30.27S

$$

WVZ021-048>050-054>055-041600-
EASTERN WEST VIRGINIA PANHANDLE

CITY           SKY/WX    TMP DP  RH WIND       PRES   REMARKS
MARTINSBURG    CLOUDY    38  28  67 S3        30.28R
PETERSBURG*    CLOUDY    34  30  85 CALM      30.29S

$$

VAZ036>039-050-041600-
CENTRAL FOOTHILLS

CITY           SKY/WX    TMP DP  RH WIND       PRES   REMARKS
CHARLOTTESVILL CLOUDY    38  29  70 CALM      30.30R
CULPEPER*      CLOUDY    40  32  74 CALM      30.31R
ORANGE*          N/A     41  30  65 CALM      30.32R
GORDONSVILLE*  FAIR      40  30  66 CALM      30.30S
WARRENTON*     FAIR      38  29  70 CALM      30.30S

$$

VAZ055>057-041600-
NORTH AND CENTRAL PIEDMONT

CITY           SKY/WX    TMP DP  RH WIND       PRES   REMARKS
FREDERICKSBRG* CLOUDY    40  31  71 NW3       30.31R
STAFFORD*      MOSUNNY   39  30  70 CALM      30.35S

$$

NCZ024-NYZ072-PAZ021-071-VAZ022-071-041600-
OTHER REGIONAL OBSERVATIONS

CITY           SKY/WX    TMP DP  RH WIND       PRES   REMARKS
NEW YORK CITY  SUNNY     41  22  46 MISG      30.25S
PHILADELPHIA   PTSUNNY   45  25  45 NW12      30.26S
PITTSBURGH     CLOUDY    36  27  69 CALM      30.23S
ROANOKE        CLOUDY    38  28  67 S5        30.30S
RICHMOND       CLOUDY    39  28  65 N6        30.31S
RALEIGH        CLOUDY    43  30  60 VRB6      30.31S

$$

ANZ530>537-041600-
MARINE OBSERVATIONS

STATION/POSITION TIME  TEMP    WIND        PRES
                       AIR SEA DIR/SP/G
                 (UTC) (F)     (DEG/KT/KT) (MB)
THOMAS PT LIGHT  1500   42 49  330/  6/  7   N/A
BALT KEY BRIDGE  1448   42     260/  7/  8 1025.8R
COVE POINT       1448   42     360/  7/  9 1026.2S
LEWISETTA        1448   42 48  350/  3/  5 1025.6R
SOLOMONS ISLAND  1448   42 50  330/  5/  6   N/A
PINEY POINT      1448          360/  5/  6   N/A

$$





USA.gov is the U.S. government's official web portal to all federal, state and local government web resources and services.